Regional Weather Roundup
Issued by NWS

Home | Current Version | Previous Version | Graphics & Text | Print | Product List | Glossary On
Versions: 1 2 3 4 5 6 7 8 9 10 11 12 13 14 15 16 17 18 19 20 21 22 23 24 25 26 27 28 29 30 31 32 33 34 35 36 37 38 39 40 41 42 43 44 45 46 47 48 49 50
000
ASUS43 KFSD 270710
RWRSD

WEATHER ROUNDUP FOR SOUTH DAKOTA
NATIONAL WEATHER SERVICE SIOUX FALLS SD
200 AM CDT FRI MAY 27 2016

NOTE: "FAIR" INDICATES FEW OR NO CLOUDS BELOW 12,000 FEET WITH NO
SIGNIFICANT WEATHER AND/OR OBSTRUCTIONS TO VISIBILITY.


SDZ001>005-009-010-012>017-270800-
NORTHWEST AND NORTH CENTRAL SOUTH DAKOTA

CITY           SKY/WX    TMP DP  RH WIND       PRES   REMARKS
BUFFALO          N/A     46  41  82 S6        29.81S
FAITH            N/A     48  40  73 N6        29.84F
MOBRIDGE       CLEAR     52  47  83 N5        29.79S
$$

SDZ012>016-024>037-041>051-057-063-072>074-270800-
SOUTHWEST AND SOUTH CENTRAL SOUTH DAKOTA

CITY           SKY/WX    TMP DP  RH WIND       PRES   REMARKS
RAPID CTY ARPT CLEAR     50  42  74 NW13      29.87S
PIERRE         CLOUDY    56  52  86 SE5       29.79S
CUSTER         CLOUDY    45  37  73 E6        29.93F
ELLSWORTH AFB  CLEAR     53  42  66 N10       29.87F
PHILIP         CLOUDY    52  48  86 CALM      29.83R
PINE RIDGE     CLOUDY    51  47  86 NE8       29.84S
WINNER         LGT RAIN  58  53  84 SW8       29.84S
$$

SDZ004>011-016>023-039-040-270800-
NORTHEAST SOUTH DAKOTA

CITY           SKY/WX    TMP DP  RH WIND       PRES   REMARKS
ABERDEEN       PTCLDY    57  53  86 S6        29.79F
WATERTOWN      MOCLDY    60  52  74 NE3       29.80F
BROOKINGS      CLOUDY    60  55  83 SE5       29.79F
SISSETON         N/A     56  55  97 SE3       29.77F
$$

SDZ017-020-022-023-036>040-048>070-270800-
SOUTHEAST SOUTH DAKOTA

CITY           SKY/WX    TMP DP  RH WIND       PRES   REMARKS
SIOUX FALLS    CLOUDY    62  55  77 SE6       29.81S
HURON          PTCLDY    58  55  90 E7        29.76F
CHAMBERLAIN    CLOUDY    64  60  87 NW5       29.79F
MITCHELL       PTCLDY    64  58  80 S7        29.78F
YANKTON        CLOUDY    63  55  77 SW7       29.80F
$$

ABBREVIATIONS USED IN REMARKS
   TC - TEMPERATURE IN CELSIUS
  WCI - WIND CHILL INDEX
   HX - HEAT INDEX
  VSB - VISIBILITY




USA.gov is the U.S. government's official web portal to all federal, state and local government web resources and services.